GFSCGP_sfc_rhum_177.txt.gz
RH
52 72 73 42 40 43 52 59 61 51 40 45 47 44 37 29 27 27 24 22 23 24 24 25 24 26 28 28 34 66 89 90 90 97 95 82 74 71 49 49 47 42 39 39
58 68 40 44 49 53 56 67 70 44 35 41 45 47 36 26 25 23 24 23 24 25 24 26 27 26 28 33 50 89 90 90 87 91 93 89 76 61 51 53 49 46 42 43
58 43 42 48 54 60 59 64 55 54 44 42 46 47 28 22 23 22 24 26 27 30 28 28 28 28 32 37 72 93 90 87 83 84 94 90 80 58 58 56 56 48 42 42
57 45 52 54 61 55 96 44 42 53 68 84 63 80 42 29 23 20 25 28 28 32 34 28 29 29 34 38 76 88 89 88 87 87 87 88 80 71 60 58 55 50 44 46
63 48 53 62 50 46 61 46 54 61 87 95 61 93 36 25 21 24 28 31 31 33 34 37 29 31 32 47 82 91 89 90 90 92 87 93 95 67 57 57 56 52 49 51
56 45 55 56 49 47 45 54 52 85 88 91 44 52 40 29 25 25 26 34 39 44 42 38 28 29 32 64 90 93 92 91 91 92 91 88 88 73 63 60 58 54 54 56
49 44 47 54 54 33 51 56 88 78 89 66 29 40 34 24 22 25 38 43 45 52 47 42 30 29 36 85 96 95 95 96 95 93 91 89 73 64 61 58 57 58 59 61
80 86 48 47 49 50 48 60 91 91 69 64 38 52 31 20 20 33 35 42 50 58 50 43 32 33 52 89 96 94 94 97 95 92 88 86 78 64 59 56 57 59 60 62
49 56 37 36 36 46 48 76 56 86 54 64 40 27 22 23 34 37 39 50 62 59 50 41 32 36 77 88 94 94 94 94 94 88 83 70 63 60 58 58 56 59 62 62
39 63 37 39 41 39 49 42 76 69 89 73 44 37 53 34 44 40 40 60 70 70 56 39 33 51 74 87 91 93 92 93 92 88 76 67 54 53 54 55 60 62 62 63
40 45 47 40 42 36 39 57 83 88 84 90 72 48 26 36 39 47 58 70 82 84 50 40 51 70 79 91 94 96 95 92 93 88 83 68 56 54 51 52 54 56 57 57
38 44 59 47 31 28 36 42 41 85 71 72 74 62 21 29 37 58 80 76 86 72 64 82 84 89 93 96 98 97 94 89 84 87 85 82 59 54 56 55 56 54 56 53
40 48 62 44 36 41 40 27 28 37 58 76 83 53 24 24 42 57 81 88 88 85 86 90 90 92 96 95 95 96 94 95 86 84 85 87 81 66 63 61 57 52 48 44
51 49 53 59 45 38 46 40 38 44 69 59 49 40 30 31 54 81 85 88 89 85 84 91 94 92 92 93 93 91 96 93 86 82 84 87 83 75 62 58 51 43 36 31
48 58 52 44 41 43 46 44 41 48 46 54 42 38 30 35 69 94 88 90 90 87 89 88 90 92 92 93 95 91 92 96 92 82 90 80 63 58 50 44 38 33 31 31
50 59 52 65 38 36 48 37 36 39 36 31 30 30 24 40 71 86 91 92 93 93 93 93 88 93 96 95 94 92 90 94 88 85 79 69 54 48 42 37 34 34 34 32
51 59 58 62 37 42 42 33 31 31 25 26 31 27 27 52 70 94 95 90 95 97 92 90 94 93 93 94 88 90 93 87 83 73 65 54 46 42 38 35 36 37 36 34
47 56 58 71 48 53 30 23 30 33 27 24 27 28 34 45 60 93 90 92 94 96 97 93 97 97 96 94 94 91 85 85 79 64 54 47 43 38 36 35 36 36 34 34
45 48 57 67 54 38 30 28 34 34 26 25 30 30 36 40 45 77 86 81 88 92 95 97 95 97 95 94 93 92 92 89 78 63 52 44 40 39 40 40 38 35 35 34
50 48 52 53 66 48 27 28 32 26 34 27 29 32 41 42 54 75 92 74 82 83 88 96 97 95 95 94 89 90 89 87 85 72 54 43 42 41 42 42 39 39 37 38
70 64 69 62 63 49 28 34 29 35 32 29 27 32 43 50 48 50 87 79 83 90 94 92 92 94 95 91 88 91 88 84 68 48 44 43 40 42 39 41 38 37 41 39
57 63 64 55 66 73 28 34 31 29 29 29 28 34 46 45 45 60 80 60 70 85 80 83 88 91 93 89 84 80 68 54 45 44 42 40 36 33 34 35 33 33 32 33
46 37 44 45 45 31 30 32 28 29 32 32 32 35 43 47 48 66 79 60 61 64 80 80 73 78 78 77 61 56 48 40 36 35 35 33 32 30 30 29 30 33 31 38
30 30 34 38 28 33 27 25 28 30 30 30 34 39 43 45 49 63 72 62 61 60 61 61 61 59 56 49 46 42 37 31 29 30 31 30 30 28 26 32 36 37 38 40
33 34 32 33 28 27 28 27 30 33 30 30 36 42 45 49 55 56 65 66 62 59 57 55 54 53 48 43 39 34 30 27 28 28 29 29 31 28 30 34 36 40 36 42
34 32 34 26 24 26 30 28 34 35 34 31 37 40 46 49 54 54 60 58 58 57 53 53 52 48 44 40 38 32 27 26 28 29 33 37 35 33 38 41 45 64 63 64

GFSCGP_sfc_rhum_180.txt.gz
RH
66 83 93 56 52 51 60 68 72 58 46 49 48 47 41 37 36 36 33 34 32 33 32 32 32 34 35 38 40 46 95 94 95 97 97 97 96 98 97 77 56 52 50 50
70 88 52 52 54 56 61 72 73 55 43 44 50 54 48 40 34 31 35 37 35 36 36 34 35 38 39 41 49 62 93 92 93 94 90 89 93 95 96 94 61 55 53 53
70 57 43 49 59 64 68 72 65 62 50 52 62 63 46 36 30 27 29 33 35 44 42 42 41 39 43 44 60 86 93 91 90 88 91 92 92 87 89 96 82 60 54 55
66 51 52 59 66 59 91 48 50 61 77 91 69 89 60 41 33 27 29 35 44 48 49 47 46 44 44 46 74 92 93 92 88 88 90 91 90 91 89 77 76 60 56 58
71 56 66 74 60 49 69 51 61 67 80 91 75 97 68 39 36 30 30 34 48 49 48 47 48 44 42 51 94 95 94 91 90 90 86 90 90 90 90 87 66 64 64 61
65 52 59 61 53 54 50 57 57 73 95 99 70 78 69 40 29 29 38 48 48 45 43 50 52 48 44 69 96 96 96 93 92 90 89 87 90 92 94 89 70 70 69 69
63 55 54 54 66 49 49 68 95 93 96 86 44 59 45 32 37 46 49 45 44 50 54 56 54 52 49 91 96 92 94 98 95 93 90 90 90 88 86 82 70 69 71 72
92 82 57 57 61 62 58 70 96 98 92 80 54 78 52 27 40 40 37 43 54 54 56 67 57 53 72 92 91 91 95 98 96 93 92 91 90 91 86 71 65 70 71 72
69 73 44 42 43 48 60 83 66 92 78 88 72 44 31 33 46 46 49 56 66 70 67 71 65 51 94 91 90 94 95 96 94 93 92 91 89 89 84 67 63 68 71 70
51 77 46 45 49 50 55 51 84 94 98 92 74 55 75 42 53 51 62 56 63 75 73 76 51 80 93 90 89 95 94 94 93 92 90 89 86 71 69 62 67 71 70 74
52 57 58 48 51 54 58 75 74 96 99 97 93 64 36 36 47 66 64 62 74 79 84 79 74 92 95 94 96 96 94 95 94 92 92 86 73 79 70 68 70 70 71 72
50 57 80 55 38 37 40 46 47 91 84 85 83 75 33 32 47 65 65 81 83 85 92 97 97 96 96 96 97 96 96 93 94 91 91 81 68 64 67 66 68 66 68 64
52 68 84 64 56 52 52 44 44 48 60 68 90 68 30 30 49 57 87 91 85 88 95 98 96 97 98 98 97 97 95 95 93 91 90 83 72 71 68 65 64 60 55 45
59 58 65 71 53 52 60 51 48 53 83 68 64 56 40 33 53 63 85 90 90 91 95 97 97 98 97 95 94 94 94 93 93 93 93 88 79 72 65 59 52 44 36 35
62 75 64 58 52 52 55 57 54 56 51 65 55 50 34 36 53 65 93 90 86 92 94 97 98 98 98 96 91 90 93 96 92 93 94 91 84 69 53 45 38 35 35 36
60 84 71 74 54 53 54 44 46 45 42 44 42 36 25 36 47 59 92 90 91 92 95 94 97 97 98 95 91 88 92 95 93 94 93 87 76 60 45 38 37 38 38 41
64 83 81 84 64 61 67 45 42 42 38 36 40 33 31 39 51 59 96 90 94 96 95 97 97 97 97 94 87 90 91 92 91 90 88 78 58 45 42 39 39 39 39 40
57 69 82 90 77 82 43 32 34 40 38 36 34 35 37 43 56 80 89 95 93 96 98 98 98 98 97 98 94 93 90 88 89 89 82 65 46 44 42 41 41 39 38 39
52 65 80 90 82 57 45 35 44 48 42 37 38 38 40 45 52 92 85 88 96 97 98 98 96 97 96 96 92 89 86 84 80 80 72 51 43 43 45 45 43 42 40 41
62 63 74 77 83 75 42 36 40 36 52 40 38 42 53 52 73 88 90 89 92 95 98 97 96 95 96 96 91 91 90 84 81 71 61 48 45 44 46 45 44 48 43 43
81 73 86 78 85 65 42 42 35 49 47 44 39 43 57 62 64 67 79 91 92 94 96 96 94 96 97 95 92 95 94 92 84 69 58 48 46 46 45 46 46 48 49 48
80 87 90 85 85 83 44 39 41 43 46 43 43 48 57 59 59 86 73 94 90 90 90 92 96 98 95 92 90 93 92 86 70 56 48 45 41 38 39 41 44 46 48 49
72 58 71 61 60 42 41 41 42 40 43 47 46 48 54 58 60 84 75 77 85 90 87 87 93 96 95 91 85 87 79 56 45 40 40 39 38 37 40 41 44 47 46 50
48 45 50 53 42 46 42 40 36 44 46 43 45 54 55 62 60 86 79 78 76 87 91 82 86 92 90 78 69 54 44 37 36 37 36 36 35 38 38 42 47 52 52 56
46 46 48 48 38 41 35 34 37 47 45 43 44 56 60 60 68 75 83 80 79 76 71 75 74 66 60 52 45 40 35 33 34 35 35 36 38 37 43 57 51 58 70 53
47 47 48 48 36 38 41 40 44 48 48 44 49 55 62 63 67 69 77 72 72 69 68 65 60 54 56 49 44 40 34 32 33 36 42 45 45 51 58 67 76 67 68 66

GFSCGP_sfc_rhum_183.txt.gz
RH
83 85 90 83 66 65 69 79 83 65 54 61 54 54 48 43 43 46 44 40 42 40 34 38 36 38 40 43 43 54 98 97 96 98 98 99 98 97 96 96 92 85 59 52
79 90 70 55 62 65 71 83 81 67 57 55 58 62 53 46 47 44 39 38 38 39 42 44 50 46 46 44 50 71 95 95 93 93 93 95 96 95 94 90 80 80 64 52
80 61 54 57 66 71 77 83 77 78 58 60 69 74 58 41 42 36 32 37 35 43 55 55 52 58 56 52 59 71 97 95 95 94 92 92 93 97 96 94 93 77 59 52
77 60 57 66 74 72 94 62 62 66 84 96 72 92 70 55 48 37 34 42 51 58 54 54 52 52 50 42 63 79 95 95 93 91 91 94 94 96 93 90 93 91 82 60
55 69 70 77 68 60 69 62 70 71 86 97 84 97 81 57 49 43 45 55 57 54 53 54 54 50 50 52 66 74 94 94 91 92 92 91 90 87 91 91 90 89 75 64
78 63 65 67 61 62 59 69 66 89 94 99 79 86 47 39 42 52 53 50 51 60 56 50 47 45 55 62 74 84 94 93 90 92 90 87 89 91 91 87 85 84 78 71
69 71 65 59 74 60 62 78 95 90 92 81 58 69 63 41 49 52 51 56 61 61 57 55 66 62 65 68 89 89 89 89 87 92 91 88 87 87 85 84 82 74 71 78
91 68 68 62 62 66 71 75 95 100 96 75 61 89 62 40 45 50 47 58 49 50 49 54 67 68 73 71 93 85 86 89 90 93 91 88 85 87 85 83 82 80 74 75
78 72 55 62 56 52 65 85 67 92 90 97 86 59 33 40 38 56 57 57 58 64 67 69 68 76 83 94 89 85 86 94 95 92 89 89 86 87 88 87 79 75 75 77
60 77 54 49 54 53 56 57 81 93 99 94 85 63 72 48 49 64 71 68 70 77 77 75 84 94 96 93 88 88 90 88 91 92 90 87 87 86 86 81 74 68 69 73
64 67 64 55 62 63 73 78 82 88 97 98 99 68 39 37 39 76 73 73 81 82 79 88 94 98 96 94 94 93 92 94 95 92 90 90 91 89 85 81 73 70 74 74
58 70 89 68 44 46 50 55 61 89 83 97 88 70 32 36 41 61 69 79 81 83 84 95 96 96 96 97 98 98 96 94 95 91 88 90 91 90 91 85 79 74 74 71
60 75 89 58 50 54 56 53 55 62 76 73 90 61 38 32 39 51 82 86 85 81 89 97 97 98 98 98 98 98 97 98 94 90 90 89 92 91 92 88 78 72 66 56
59 73 65 67 51 59 63 57 54 65 90 73 65 54 42 39 49 59 86 90 84 84 96 96 98 98 95 96 97 97 97 95 92 92 90 90 86 84 85 80 66 54 42 39
61 88 80 72 67 65 65 62 57 64 63 79 55 54 42 38 52 62 86 89 83 88 94 98 96 98 98 98 96 97 96 93 88 90 91 91 82 72 64 48 44 38 38 40
67 87 85 88 66 66 69 53 49 55 51 53 51 51 36 36 49 54 90 88 87 93 95 96 98 97 96 94 95 94 96 96 90 90 91 81 60 48 44 42 40 42 46 48
67 90 88 89 77 71 69 58 56 52 47 47 52 36 42 38 52 85 93 92 91 94 95 97 98 98 96 94 93 95 95 93 93 93 89 79 58 46 43 39 40 46 50 52
65 77 87 94 81 90 43 41 38 39 38 41 42 41 42 46 71 94 92 96 92 93 97 98 98 98 98 96 96 92 92 92 94 93 90 85 75 57 42 40 42 46 49 54
58 65 86 82 92 68 52 44 45 46 41 40 42 42 42 51 73 98 82 94 95 96 97 99 98 98 98 98 94 93 94 91 88 89 85 79 68 62 46 44 43 44 48 55
66 66 70 89 90 87 49 43 43 39 44 41 45 47 52 59 68 79 87 94 95 96 98 98 98 96 96 95 90 91 93 91 92 87 80 66 60 48 45 45 47 50 48 49
85 85 81 77 87 78 53 44 38 46 36 50 47 50 57 66 67 67 80 94 92 96 98 96 94 95 96 92 89 92 89 91 87 77 72 58 46 46 44 45 44 47 50 51
76 87 87 80 95 88 50 43 42 37 45 47 50 56 61 66 65 90 89 91 89 95 96 93 96 98 96 91 90 94 94 88 82 69 57 49 45 40 42 44 45 46 48 51
75 62 80 75 66 50 48 45 41 41 42 49 49 53 60 64 71 90 82 89 90 90 94 92 96 98 97 91 86 92 90 79 66 51 44 42 41 40 39 40 45 50 52 56
62 52 62 70 56 50 46 43 40 40 46 46 46 57 59 64 79 89 80 88 95 88 91 93 94 96 96 88 87 83 79 67 47 42 42 41 40 42 43 46 48 52 56 61
59 54 54 58 49 42 38 40 39 42 47 47 44 56 61 64 76 88 85 85 85 92 90 87 90 90 85 72 71 65 54 40 38 39 39 40 43 42 51 55 55 59 55 52
69 48 49 50 43 39 42 46 45 44 47 48 51 59 66 67 71 84 84 88 79 77 77 76 72 69 69 62 59 47 37 36 38 39 44 46 48 58 73 74 83 71 75 69

GFSCGP_sfc_rhum_189.txt.gz
RH
85 78 76 73 73 64 77 83 84 73 58 70 78 68 53 47 52 58 56 54 51 49 44 56 54 55 55 53 55 56 72 93 98 99 97 99 98 98 98 98 94 92 91 90
71 72 62 70 69 74 80 84 84 69 66 64 65 69 56 54 55 53 52 50 51 50 50 54 55 54 55 57 58 60 77 96 98 97 96 95 91 96 95 98 93 90 87 89
78 55 65 68 75 77 81 82 80 69 74 72 76 68 63 51 53 48 46 51 61 62 58 53 52 56 58 57 56 53 68 93 95 92 90 98 97 97 98 97 95 90 82 83
81 70 67 72 76 76 89 70 74 80 88 93 73 85 77 61 60 48 42 62 57 56 54 54 53 51 49 49 57 65 62 82 91 92 91 91 94 95 95 94 96 89 83 80
41 77 80 83 71 69 61 71 80 87 97 98 88 96 76 66 46 37 41 55 52 52 55 56 52 43 43 43 47 56 65 71 72 92 89 92 93 92 93 94 90 85 82 78
81 76 77 68 68 68 68 70 70 90 95 95 81 84 60 52 40 41 55 54 52 52 52 48 46 49 52 60 69 70 73 69 70 89 91 91 92 91 96 96 90 88 81 74
68 74 79 68 80 68 66 74 87 80 85 76 77 84 56 45 41 41 42 52 55 58 61 56 65 69 70 74 78 80 78 79 79 87 87 86 91 93 94 92 90 85 79 76
82 52 71 70 68 66 78 70 88 77 87 77 63 87 60 49 47 45 52 58 62 64 54 64 71 75 77 83 89 92 83 84 82 89 88 87 87 90 89 86 89 83 70 65
85 71 57 72 68 58 76 89 71 87 87 93 86 70 47 44 48 57 53 55 56 62 66 74 73 78 85 88 86 95 94 89 83 89 88 86 86 86 90 87 84 83 79 71
60 73 58 57 65 67 64 62 83 92 99 96 84 81 67 52 46 51 58 51 57 70 73 79 78 86 90 94 94 93 91 94 91 89 89 91 88 88 89 88 84 76 73 71
62 68 65 65 63 62 77 82 87 88 89 99 99 63 55 47 46 55 51 55 67 72 80 80 80 89 88 93 96 96 93 94 94 91 90 92 92 87 87 82 78 73 72 71
63 76 91 67 53 60 64 71 82 91 88 95 94 70 32 34 45 49 44 49 70 75 82 81 93 89 92 91 94 96 96 95 94 92 92 91 90 86 84 80 76 74 78 79
61 70 87 69 54 55 66 64 68 73 84 77 95 60 42 39 33 38 54 52 78 81 84 84 90 89 92 93 97 97 96 96 95 93 93 93 93 88 85 81 80 77 80 85
66 73 71 83 63 54 63 60 58 72 92 76 68 56 44 39 40 42 48 63 85 85 88 88 95 96 96 95 96 98 99 97 96 94 92 93 91 89 87 83 83 82 74 71
75 90 86 78 75 80 79 80 75 82 75 85 63 62 50 43 44 48 55 75 91 82 89 81 95 97 96 97 96 98 99 99 94 94 94 94 92 90 90 88 83 77 73 59
91 99 98 95 86 86 82 75 75 74 71 69 66 68 45 40 50 49 58 90 91 87 82 84 89 95 95 95 96 96 97 99 95 96 98 94 92 89 89 85 79 75 72 59
91 97 96 91 85 83 80 71 64 60 58 57 62 38 46 42 51 53 91 87 91 92 87 88 92 96 97 92 91 95 94 92 94 95 94 93 89 90 86 81 73 63 59 54
85 90 92 91 87 80 55 55 54 57 49 51 49 44 45 49 59 70 89 89 92 91 90 91 94 98 97 95 95 93 92 92 94 95 95 93 91 89 84 76 69 58 53 56
76 76 94 97 91 56 57 47 49 55 50 42 50 46 48 52 65 71 78 83 94 94 93 96 98 99 97 94 93 93 93 93 92 94 93 91 90 89 82 73 64 59 62 66
78 76 78 98 95 94 62 55 47 46 50 44 49 48 52 61 59 61 77 91 91 94 97 98 98 98 94 95 91 93 95 93 94 91 90 88 85 84 76 66 65 64 65 71
93 98 93 90 91 79 64 55 50 70 54 50 50 48 56 66 58 59 80 89 89 96 96 94 96 98 96 94 90 95 94 97 95 89 84 79 76 74 68 62 62 65 69 71
64 88 92 89 98 85 56 59 60 52 50 47 49 49 54 60 64 75 83 91 93 97 95 93 97 97 96 91 89 95 97 95 92 90 86 70 59 51 52 59 61 59 58 70
70 51 67 82 71 58 63 56 49 49 46 46 48 47 49 63 66 78 88 95 92 96 97 93 96 97 96 91 87 94 96 90 89 88 76 60 49 50 50 50 50 52 51 58
71 65 63 62 49 47 40 35 48 46 48 45 48 47 52 61 62 82 87 96 92 95 97 92 93 96 97 91 88 90 88 82 77 82 72 58 51 50 49 49 48 52 56 60
72 72 75 74 64 58 51 46 44 42 41 53 49 45 53 61 65 83 88 92 95 95 95 91 91 93 96 90 89 86 81 71 61 53 48 46 48 48 53 55 52 54 52 49
68 71 84 73 51 57 50 53 50 47 49 52 52 52 60 64 66 80 89 86 95 96 94 92 88 90 91 90 90 88 82 72 50 46 49 56 53 52 56 63 73 57 59 58

GFSCGP_sfc_rhum_195.txt.gz
RH
78 60 62 56 59 51 60 67 67 66 59 65 67 64 50 43 50 45 40 41 42 46 40 48 49 47 46 42 45 46 54 53 73 83 83 86 86 91 95 95 89 86 87 87
56 54 54 66 68 69 71 74 69 60 61 68 73 65 47 46 46 42 42 41 42 49 47 46 45 45 45 49 51 56 54 54 69 80 83 84 81 83 89 94 93 88 87 89
47 57 69 66 72 70 72 67 62 62 71 66 73 50 39 38 45 45 45 44 45 53 50 48 47 47 51 49 52 50 54 58 58 73 85 91 89 90 93 94 96 95 89 89
67 72 69 72 70 68 75 64 68 78 78 74 68 55 50 46 44 39 35 38 52 54 48 49 48 44 47 46 53 60 62 63 61 63 71 82 85 87 85 83 92 94 90 89
44 76 76 75 64 64 58 73 82 82 95 97 75 90 45 45 32 28 30 33 38 48 52 48 47 47 47 52 60 61 67 68 67 70 69 75 85 79 79 83 91 94 89 88
67 79 75 60 69 69 69 68 63 79 89 83 66 68 42 36 30 34 34 34 38 40 44 48 44 47 50 63 72 75 76 78 76 77 74 74 78 81 88 87 94 94 90 90
62 72 80 70 69 69 65 56 77 70 82 62 76 72 41 38 35 36 37 38 39 45 51 43 46 52 60 73 77 77 78 81 81 79 79 76 76 82 80 80 88 93 90 91
64 56 74 72 66 57 73 56 77 60 75 66 70 79 43 45 42 43 46 48 50 47 44 47 51 60 70 76 79 81 85 87 86 85 86 81 76 82 77 75 85 84 85 84
64 56 63 73 68 58 72 81 65 81 76 94 78 62 44 43 41 41 39 46 43 45 42 48 55 67 76 78 84 86 88 90 89 90 84 81 78 76 79 78 84 84 81 79
53 53 59 64 65 64 64 62 79 86 90 96 80 72 57 42 40 44 48 46 44 46 48 54 59 73 76 79 85 87 88 90 88 92 86 83 82 82 82 88 86 82 79 74
63 60 61 62 67 65 74 78 86 80 82 97 97 72 50 46 45 53 44 42 48 49 54 60 73 77 78 86 88 88 89 90 93 91 95 91 87 87 90 89 78 78 70 70
70 72 79 59 59 56 63 70 76 86 87 89 89 72 36 40 45 41 42 40 50 57 59 72 80 80 77 86 89 91 92 90 87 92 92 97 97 92 93 90 80 70 68 69
66 78 86 64 64 63 66 70 71 72 78 87 96 58 38 35 40 38 41 47 50 50 74 73 75 76 71 83 89 89 89 92 93 93 94 95 98 96 94 90 82 74 73 73
64 76 68 67 58 55 63 63 69 65 90 64 65 56 47 45 43 42 45 52 50 58 76 75 79 79 76 82 90 88 90 89 94 94 93 95 96 96 94 86 84 82 80 80
72 83 85 82 76 78 73 69 65 65 62 75 65 70 57 49 48 50 50 57 58 72 74 80 84 86 83 89 87 87 88 89 92 95 94 94 94 94 89 90 93 88 82 79
88 96 90 87 83 86 87 82 79 75 73 78 75 77 52 49 53 45 50 59 73 80 83 84 87 84 89 90 88 87 91 93 94 96 96 92 92 91 93 90 92 88 84 75
85 94 93 95 85 78 78 63 63 63 74 74 83 61 50 45 47 45 53 69 81 86 90 90 92 92 94 92 89 93 91 93 96 98 95 93 91 92 91 86 84 84 81 75
81 98 93 97 87 94 48 51 53 59 60 67 65 56 51 49 51 52 64 84 88 90 94 95 94 95 94 90 91 89 89 91 94 95 95 92 91 89 86 86 85 81 77 69
84 88 94 94 97 74 51 39 56 57 54 53 59 50 48 51 59 55 77 72 90 91 95 94 95 96 94 94 93 90 91 92 93 95 95 92 88 87 83 85 85 81 78 80
89 71 73 98 99 94 58 53 49 52 54 48 50 52 55 56 56 45 59 67 90 91 92 95 96 95 94 95 89 90 94 94 96 94 94 91 89 88 86 84 82 75 70 73
89 95 90 87 82 81 54 48 53 71 55 53 54 55 58 57 55 45 51 71 88 93 92 91 96 97 97 92 87 93 94 97 95 92 90 89 87 88 85 85 81 79 74 74
92 96 92 94 96 88 55 67 64 57 58 60 54 58 60 59 56 55 59 80 92 95 93 92 96 98 95 89 89 95 96 90 89 89 89 88 84 80 80 82 82 72 73 79
61 52 70 81 72 55 70 62 46 54 52 58 58 56 60 62 56 58 64 84 92 95 93 91 94 95 95 90 87 96 94 83 78 80 84 81 74 72 75 75 75 77 74 82
79 70 76 70 58 51 47 44 46 56 57 55 57 58 60 59 55 60 66 81 92 95 92 90 93 95 97 94 91 92 84 75 72 73 74 75 73 68 68 68 70 75 79 82
40 45 43 44 37 59 44 50 51 50 53 58 58 59 56 61 56 61 68 82 92 96 92 88 91 94 95 92 94 91 82 74 75 77 70 63 60 56 58 59 58 61 61 64
53 48 52 47 33 38 32 28 42 55 52 52 50 43 47 61 62 64 70 82 91 98 94 91 92 92 94 92 92 89 87 76 71 69 63 62 59 56 57 60 67 63 61 62

GFSCGP_sfc_rhum_201.txt.gz
RH
38 42 51 23 21 20 19 17 16 18 31 34 23 22 17 14 18 20 15 15 17 23 26 30 30 29 28 27 29 28 30 28 34 38 39 38 40 43 51 62 59 51 54 59
34 36 21 30 30 26 24 25 26 24 32 34 24 25 18 17 18 17 15 15 18 22 24 27 31 28 28 30 31 32 30 35 40 44 44 45 45 44 42 54 66 62 57 66
30 32 34 33 37 31 27 25 20 30 33 32 35 19 21 20 20 20 19 20 20 23 25 25 26 26 30 33 36 32 36 41 45 46 50 52 52 54 55 55 63 70 66 73
28 37 40 37 38 31 46 29 34 41 46 48 31 30 14 18 18 17 20 18 19 21 20 21 23 24 29 32 37 38 43 48 48 49 54 58 61 60 55 54 55 63 73 76
47 49 49 45 35 31 38 41 46 48 62 67 40 63 15 18 18 19 19 20 19 19 20 21 23 24 27 32 42 43 45 51 53 57 59 63 66 60 55 53 54 57 75 81
43 49 40 34 40 37 43 41 43 68 74 86 35 34 14 17 13 19 18 17 19 20 22 22 23 25 27 36 44 48 49 54 54 58 58 63 70 72 69 63 62 59 68 84
46 46 46 43 46 48 47 36 85 86 93 48 32 37 15 17 16 19 21 22 21 23 23 24 28 28 31 46 52 51 50 56 55 56 58 63 70 70 70 70 66 66 67 84
64 72 52 44 42 35 40 34 72 57 43 33 36 37 23 20 21 22 21 23 24 25 25 28 30 33 37 51 53 52 59 61 61 57 60 60 62 71 71 71 69 67 66 74
38 45 52 50 44 40 44 50 38 54 35 48 27 27 23 22 25 23 24 25 27 27 29 29 31 38 44 54 54 57 62 67 65 65 63 62 64 69 72 72 69 72 66 70
29 42 46 54 46 45 44 33 53 50 70 52 26 27 34 28 26 28 26 28 28 29 30 30 40 49 52 55 58 57 66 73 71 69 71 64 61 64 68 71 73 70 66 72
34 32 47 49 50 38 48 42 42 48 53 74 42 26 23 24 29 29 27 28 29 31 30 34 48 51 57 64 66 68 68 78 76 71 75 74 70 68 72 76 70 72 73 72
44 42 43 39 39 37 35 34 33 53 60 59 70 43 19 24 25 25 28 28 29 30 31 37 53 57 67 71 73 74 78 81 74 75 78 80 74 78 82 90 72 68 83 70
45 43 53 44 43 42 45 36 37 32 39 54 67 33 21 22 24 25 29 30 29 29 32 38 58 63 74 72 75 82 77 72 71 72 75 88 81 92 97 90 90 90 93 88
56 46 42 41 44 42 47 43 44 42 57 45 38 31 23 23 28 29 30 29 28 31 33 40 64 64 78 79 84 82 78 72 77 81 83 93 88 94 95 96 96 96 94 91
54 60 53 46 45 45 49 45 42 48 48 54 39 36 30 28 30 29 27 30 31 33 35 45 72 77 81 89 88 83 78 78 85 90 91 95 91 93 92 94 94 92 89 81
64 68 64 78 57 51 58 48 46 45 42 41 38 39 28 27 26 27 30 34 37 36 37 47 74 80 87 91 88 84 81 87 91 93 97 94 92 94 94 92 93 88 90 85
63 72 80 71 49 55 60 45 46 43 38 38 44 33 30 33 32 33 37 38 40 41 39 59 82 86 92 92 88 88 87 89 94 96 95 92 90 94 93 91 90 92 88 85
84 66 83 77 62 75 34 28 32 36 32 30 32 31 33 34 35 33 33 40 43 39 40 76 86 90 92 89 88 83 88 91 94 96 94 91 92 92 89 88 87 84 83 82
54 70 90 84 65 42 37 30 32 33 33 29 29 33 27 30 30 31 29 35 40 40 58 84 86 93 89 90 86 85 90 91 93 96 95 92 90 90 83 86 87 80 75 67
47 48 70 67 75 57 35 39 30 34 43 32 30 30 32 35 36 28 36 32 36 41 65 87 88 90 89 86 84 89 92 92 96 96 95 91 89 87 85 84 84 78 77 75
72 65 74 66 67 42 25 24 27 50 51 38 30 30 31 38 34 34 33 31 31 39 68 83 87 91 90 85 85 93 94 96 97 93 92 91 88 88 85 84 84 87 86 84
44 54 57 60 65 72 27 38 37 39 33 31 29 27 26 34 31 27 30 31 34 40 63 83 88 92 87 84 86 92 96 91 94 96 96 90 88 86 84 85 85 87 92 96
40 32 33 33 36 37 40 36 30 29 28 26 26 27 34 33 28 26 31 31 35 38 62 84 86 91 90 85 84 90 88 84 82 97 98 96 84 83 87 96 92 92 82 74
29 26 45 36 26 25 23 24 24 22 22 21 24 22 19 21 28 28 33 36 41 39 57 87 87 91 94 89 84 81 76 77 79 85 97 90 85 86 84 83 79 66 64 70
31 24 29 31 27 26 24 20 18 19 17 14 15 17 21 27 30 28 35 39 42 40 58 89 86 89 91 90 87 76 72 75 79 82 86 88 87 60 56 55 55 56 53 57
31 34 36 34 21 19 18 14 14 15 17 16 18 19 21 26 29 32 36 39 42 42 60 91 89 87 91 92 90 84 78 77 78 80 77 68 61 56 58 65 72 74 75 76

GFSCGP_sfc_rhum_204.txt.gz
RH
52 63 74 50 37 35 32 32 27 30 38 47 38 34 26 20 26 30 25 25 29 34 38 41 41 42 42 39 42 42 44 43 52 62 64 64 64 66 74 84 76 74 75 75
55 57 39 38 34 35 32 37 40 37 35 42 38 41 34 23 26 26 23 24 29 36 38 38 42 41 40 43 47 46 44 49 55 66 67 69 70 70 70 71 83 82 80 81
57 48 37 37 43 38 36 36 35 42 44 40 48 45 31 30 27 26 26 28 28 33 34 33 36 41 42 45 49 44 48 54 60 64 71 73 74 76 77 76 76 89 82 82
45 44 42 45 45 40 66 34 36 46 64 83 46 67 34 31 28 27 28 30 32 29 27 28 31 35 39 42 51 53 53 57 59 65 75 78 84 85 79 77 78 77 87 86
64 58 56 53 46 36 57 45 54 60 79 77 63 84 37 25 28 29 31 29 29 29 32 33 33 35 39 42 55 58 57 60 65 71 75 83 86 84 81 74 76 75 79 89
54 55 50 48 41 42 47 50 63 85 93 92 60 66 45 30 25 30 28 29 29 31 33 33 33 36 40 45 58 67 67 67 66 71 70 71 68 80 80 74 71 76 78 90
53 58 53 48 56 56 55 60 94 98 96 90 40 57 37 27 28 30 32 31 33 36 36 39 42 44 46 54 70 68 67 69 62 66 66 71 72 82 89 82 74 69 75 78
85 84 59 50 56 59 65 58 91 82 91 85 46 67 35 30 30 29 29 34 36 39 40 42 43 51 59 64 69 61 61 62 66 72 80 82 79 86 83 88 85 81 78 76
72 72 58 52 49 50 56 75 54 69 51 83 58 40 36 33 35 32 34 37 41 42 43 41 44 58 68 65 60 61 69 66 74 79 86 85 84 81 86 88 85 77 72 73
50 64 55 58 55 56 59 43 69 78 85 78 62 44 72 42 40 38 39 42 42 43 43 42 48 67 71 74 67 70 74 74 78 83 80 77 87 78 81 73 74 73 73 79
53 44 63 59 66 58 61 59 56 68 82 91 83 57 35 40 40 43 40 41 44 45 43 45 55 72 74 74 72 77 79 83 82 83 82 83 85 86 84 81 77 75 76 80
56 62 70 57 47 45 52 47 45 88 78 87 91 83 29 34 36 37 41 40 42 41 44 46 68 74 73 75 76 82 84 82 76 79 80 83 84 89 89 93 90 81 79 81
62 64 80 62 58 54 56 47 48 47 56 74 91 58 31 31 36 37 43 41 37 39 44 48 74 80 72 77 81 85 83 81 80 73 81 84 87 94 96 94 94 93 90 89
66 60 62 71 59 52 59 46 44 53 87 71 59 50 37 32 38 42 40 42 43 44 43 50 77 82 78 80 87 86 84 83 82 83 89 90 94 95 95 94 95 97 98 96
64 81 65 58 51 54 54 55 52 60 59 68 53 50 42 38 42 38 42 44 45 45 46 51 84 81 81 86 88 85 84 83 86 92 93 96 93 92 92 93 94 93 94 96
93 98 83 84 64 64 71 58 56 54 50 48 49 51 37 38 39 40 46 47 50 50 47 52 84 83 87 90 90 87 85 88 90 94 97 94 92 93 94 92 92 92 94 94
90 96 98 94 65 64 78 60 55 54 48 49 60 45 41 44 44 46 52 50 54 52 51 61 89 88 90 93 91 91 88 88 92 94 93 93 92 93 92 90 90 91 95 92
90 84 97 96 76 94 49 37 39 41 37 39 39 39 44 43 48 52 48 52 52 52 54 75 89 91 92 90 90 86 87 89 93 95 94 92 92 92 88 86 90 91 88 93
84 85 97 96 92 68 50 41 44 44 44 37 40 37 39 42 48 53 43 50 49 53 60 92 93 93 91 90 89 88 90 90 93 95 96 93 89 90 88 87 84 81 86 86
58 75 88 97 94 71 57 43 34 39 57 41 41 43 43 42 54 51 51 47 44 47 67 91 93 91 90 90 87 90 92 97 97 97 94 91 89 90 88 84 85 80 73 82
89 87 88 87 88 68 36 39 35 61 65 43 38 35 35 46 52 44 38 40 39 46 72 91 93 92 91 88 88 93 92 97 97 94 92 91 90 90 88 87 86 79 79 75
59 81 84 78 87 87 42 46 46 47 40 38 38 39 44 46 42 36 37 40 42 48 61 91 94 94 91 87 88 92 96 94 97 97 95 92 90 86 86 89 89 83 76 77
53 43 47 46 56 40 32 46 40 33 32 34 36 42 36 32 30 35 42 41 46 51 61 92 92 93 92 88 86 90 90 84 98 98 98 95 91 90 89 93 97 97 83 78
38 29 36 37 43 37 30 28 28 29 28 29 23 24 24 26 31 41 40 42 50 55 57 92 93 94 95 90 85 82 82 79 92 99 97 94 97 93 91 88 84 74 74 82
47 44 46 44 36 30 23 24 23 23 22 20 23 23 25 29 37 38 40 43 50 56 58 94 93 94 94 91 85 77 77 77 89 95 94 83 80 75 75 76 71 74 72 72
38 40 45 46 32 31 27 23 22 23 23 23 27 27 27 31 34 36 38 46 47 58 60 95 93 94 94 92 88 81 78 77 82 79 75 70 65 66 74 84 88 79 82 79

GFSCGP_sfc_rhum_210.txt.gz
RH
64 70 74 45 54 40 42 38 34 47 44 44 43 40 33 32 32 34 36 39 43 44 46 48 46 43 43 44 48 53 51 51 59 68 72 76 76 77 76 75 73 74 79 84
60 66 41 47 51 48 40 40 38 47 44 37 47 42 40 39 35 31 34 41 46 54 53 51 51 55 52 50 50 56 53 55 59 71 74 80 82 81 82 82 78 77 79 82
60 45 44 46 49 47 43 40 39 40 51 47 46 33 39 36 39 37 39 44 49 53 47 46 44 44 44 45 53 56 58 62 64 65 76 82 86 88 87 84 84 82 79 83
56 52 51 52 51 50 51 46 42 50 56 58 46 44 28 41 40 43 45 41 40 37 36 38 40 44 47 50 58 70 72 73 69 72 80 85 90 92 89 88 87 85 82 82
54 65 62 61 52 46 56 60 66 69 82 61 51 66 23 43 44 46 42 39 40 43 42 42 45 47 53 59 78 80 76 74 73 77 79 86 91 92 80 78 78 77 87 84
60 59 66 60 57 53 55 58 72 86 82 68 34 40 24 46 40 46 42 42 42 43 45 44 48 51 61 71 78 79 76 76 77 80 79 83 89 85 83 82 81 91 92 90
64 67 61 56 64 56 55 57 84 73 82 59 55 58 29 36 38 37 42 45 46 46 46 46 51 54 76 81 80 78 80 84 83 85 84 86 89 86 88 92 96 93 94 94
84 62 70 60 64 64 75 59 78 51 83 76 54 66 39 44 41 40 41 44 46 48 46 47 51 62 80 80 84 85 86 88 86 89 92 92 91 95 94 96 96 93 94 90
85 68 68 64 64 59 70 84 60 70 74 79 68 55 42 44 48 47 46 45 46 47 46 50 54 80 82 85 86 88 90 91 90 82 82 79 79 83 84 92 91 90 90 85
64 73 65 66 64 62 61 54 69 77 77 84 79 62 70 51 52 51 50 49 47 51 51 49 58 81 83 86 90 90 91 92 88 81 77 76 84 90 89 92 94 93 89 85
72 65 62 74 76 71 68 68 68 73 78 84 86 60 49 44 54 53 50 47 48 51 51 53 72 85 87 89 91 92 91 84 85 84 85 88 86 84 86 94 86 88 90 91
76 77 85 69 59 60 58 55 55 84 71 90 87 55 43 39 50 49 50 44 49 54 54 57 81 88 90 92 92 94 92 92 87 87 84 86 85 86 89 92 91 95 87 88
79 80 91 69 63 60 64 57 50 55 73 82 84 53 44 47 49 50 48 49 53 56 57 60 74 90 93 94 86 93 93 94 88 83 88 92 93 94 93 92 90 88 89 89
75 85 75 81 68 65 66 58 52 57 86 68 72 56 46 49 49 46 51 54 57 57 56 61 74 92 94 86 92 94 92 92 88 87 90 92 94 93 92 90 89 90 89 92
84 93 88 78 76 69 69 68 61 66 62 66 54 57 43 40 45 47 54 56 54 58 59 62 76 94 85 85 94 94 90 92 86 88 90 92 90 90 89 90 91 90 91 92
86 98 88 95 82 78 82 72 65 62 59 61 58 59 41 43 52 55 58 54 56 57 55 60 71 91 87 91 91 88 89 88 88 89 91 90 88 87 90 89 90 91 92 94
92 89 93 97 86 80 85 74 71 62 54 52 60 51 49 47 52 58 60 52 55 54 52 60 71 94 95 92 91 91 90 88 89 92 91 90 88 88 89 90 89 93 94 93
92 93 94 98 89 98 54 57 60 65 58 52 54 52 48 49 60 54 52 56 51 48 49 59 86 94 95 91 90 89 89 93 91 92 92 90 89 88 85 86 89 89 91 94
88 91 97 99 97 79 59 50 54 55 54 48 48 49 52 52 55 58 52 52 49 50 55 63 91 94 95 90 89 89 91 96 93 94 94 93 92 90 87 89 91 90 91 92
82 87 90 98 97 93 67 54 47 47 64 42 41 42 51 55 65 64 51 45 43 51 59 70 90 94 94 90 88 90 93 97 98 95 96 92 91 88 90 90 91 88 89 94
99 97 91 94 94 87 66 50 50 65 64 46 40 40 40 57 55 46 41 44 45 49 58 73 94 96 94 89 88 92 94 98 97 97 95 92 92 92 90 88 86 87 89 91
90 96 95 90 95 89 46 50 59 55 42 40 36 46 50 40 31 30 34 44 43 46 51 63 92 95 94 90 90 92 94 96 97 98 96 93 92 88 87 85 86 95 95 90
64 63 68 82 77 44 40 41 36 34 36 35 37 34 26 26 24 27 36 44 40 40 48 62 85 95 95 91 90 90 89 95 97 98 98 96 94 96 95 87 82 86 80 83
61 52 53 45 44 38 29 23 21 22 32 31 30 25 26 27 26 31 38 40 38 38 44 61 81 95 97 92 91 86 85 94 97 98 98 98 97 94 89 83 78 80 83 94
50 57 58 55 39 36 29 27 29 26 26 32 29 28 26 28 29 29 33 34 33 38 49 58 72 90 95 92 92 87 82 92 96 96 97 94 90 84 81 81 76 82 88 87
58 48 55 47 34 36 36 32 32 35 34 33 34 36 34 34 34 34 34 33 36 45 52 56 57 74 92 94 93 89 85 90 93 91 78 80 80 85 95 97 98 84 79 76

GFSCGP_sfc_rhum_213.txt.gz
RH
63 65 67 45 57 47 44 47 37 41 46 44 43 40 32 29 35 38 37 38 45 48 51 51 48 48 51 52 53 57 54 55 61 69 73 76 78 81 81 79 76 77 79 80
62 68 46 46 50 52 51 54 43 46 47 38 44 40 37 38 37 34 36 38 45 51 55 53 53 54 53 49 56 59 58 62 66 73 75 82 85 86 88 86 84 80 80 82
57 44 49 53 53 59 65 51 43 41 51 49 44 36 41 42 43 40 41 40 51 59 57 55 51 47 48 52 60 62 71 74 75 75 79 83 87 90 90 87 87 84 80 83
60 54 56 56 54 53 55 52 44 52 58 64 46 46 27 45 50 51 51 55 59 48 44 41 42 48 52 55 70 77 75 76 71 78 84 88 91 92 90 91 90 85 84 83
50 70 66 63 55 53 58 66 66 67 75 67 56 70 26 46 53 54 50 45 42 43 45 46 48 47 59 67 82 82 79 77 77 82 86 91 92 94 92 91 92 86 82 85
64 60 69 64 61 61 59 60 71 83 74 71 46 45 26 51 45 51 44 44 46 47 48 46 48 56 68 80 82 84 82 82 83 88 89 91 93 94 96 94 95 85 87 94
63 69 64 60 64 57 52 58 83 71 81 66 54 50 31 33 39 41 42 48 48 48 48 46 46 54 76 82 84 83 84 88 88 91 93 93 94 95 96 96 97 95 95 95
84 59 72 63 65 66 68 57 80 54 78 71 62 63 42 45 44 41 43 47 49 51 48 47 49 59 81 83 86 89 90 92 92 93 93 93 93 97 97 97 96 93 91 88
86 68 70 67 68 59 69 82 62 72 79 84 70 56 44 49 51 48 48 50 52 53 49 48 53 80 83 85 88 91 93 94 94 92 94 93 91 89 91 94 95 93 90 87
68 74 69 69 68 68 64 56 74 82 69 84 74 68 67 54 52 52 53 51 52 52 52 52 57 83 85 88 91 92 93 94 92 92 89 84 90 91 94 92 96 93 92 91
70 74 68 80 80 72 73 73 70 76 77 82 83 58 48 47 49 57 52 51 51 50 53 54 63 85 88 91 92 93 94 94 93 90 91 86 86 85 85 87 86 87 87 86
77 78 87 69 68 66 65 67 64 86 74 92 84 68 44 45 52 51 52 50 52 53 58 60 76 87 91 93 93 94 94 95 93 94 91 88 90 90 91 89 88 87 88 86
75 85 94 69 66 68 72 62 55 63 76 85 88 56 47 50 50 50 54 54 55 57 63 64 72 88 94 93 94 95 95 95 94 92 90 89 90 92 90 93 87 86 88 88
75 84 78 80 66 73 72 68 64 64 85 73 75 57 50 51 50 53 52 57 59 59 58 62 70 90 93 86 93 89 94 94 94 86 88 89 91 91 91 88 87 88 87 90
82 90 90 85 80 83 76 74 73 71 70 75 66 59 45 45 50 50 54 60 55 55 55 62 67 91 92 90 92 91 93 91 86 89 89 91 89 87 87 88 89 89 89 90
90 98 85 91 82 77 79 76 77 75 68 65 61 60 42 41 49 52 57 60 54 56 54 58 64 86 93 94 94 88 90 88 88 89 90 90 87 86 88 91 89 89 91 92
93 93 92 94 84 76 74 72 65 66 66 61 69 52 45 49 50 51 64 56 55 54 52 55 63 90 95 96 93 91 90 89 90 92 89 89 87 87 87 88 87 90 93 92
97 88 94 97 81 96 56 62 61 70 67 62 61 60 52 54 63 61 58 55 46 49 52 60 70 92 94 95 91 88 88 92 92 92 91 90 90 89 86 87 91 91 91 92
87 90 96 98 97 76 57 56 59 61 60 50 56 54 62 62 52 54 49 46 48 54 59 68 83 94 95 94 90 88 90 94 96 94 94 93 91 88 89 92 93 92 92 92
86 88 96 97 98 94 69 59 52 52 68 49 45 51 67 60 63 59 47 45 44 49 60 72 90 94 96 93 88 88 92 96 98 97 97 92 91 90 91 90 90 91 91 93
91 94 93 92 88 88 66 46 52 70 70 51 42 50 52 64 61 45 40 44 44 46 49 64 82 94 95 93 89 92 92 95 97 98 95 93 92 91 88 88 91 90 91 90
91 97 93 91 96 92 44 53 63 51 41 38 39 49 46 37 31 31 35 45 44 40 40 46 70 86 94 93 92 92 93 92 96 98 96 93 93 89 84 87 92 91 84 88
68 83 86 84 80 47 42 41 38 38 34 39 37 37 38 30 28 32 36 41 38 36 40 42 65 82 92 95 93 94 89 93 97 98 98 96 95 94 89 84 84 86 82 85
68 57 56 42 44 46 32 29 29 32 33 30 29 33 33 29 28 31 31 33 35 34 34 44 59 67 78 92 95 92 88 93 97 98 98 98 98 94 89 81 79 80 83 93
52 61 57 62 45 35 30 28 28 31 33 35 36 35 36 36 35 34 34 34 33 36 38 47 55 62 62 81 96 92 88 94 96 98 98 95 89 87 82 83 76 81 88 89
63 55 55 44 37 40 40 37 40 45 44 43 41 39 37 38 38 37 35 35 32 35 39 46 53 54 51 75 96 92 90 93 94 94 86 85 85 87 96 96 97 82 78 77